GEFSSGP_500_meanwind_138.txt.gz
Wind_Speed
12 10 9 7 7 7 7 6 5 4 3 5 5 5 4 4 4 5 5 4 4 4 4 5 4 4 4 4 4 5 5 6 7 7 8 9 9 10 11 11 12 12 13 13 13 13 13 13 14
14 12 10 9 8 7 8 6 5 4 4 5 5 4 3 4 4 4 4 4 4 4 4 4 4 4 4 4 4 5 6 7 7 8 8 9 10 10 11 11 12 12 13 13 13 13 14 14 14
15 14 12 10 9 9 8 6 5 4 4 5 4 4 3 3 3 4 4 4 4 4 4 3 3 3 3 4 4 5 6 7 7 8 8 9 10 11 11 12 12 13 13 13 14 14 14 14 14
16 15 14 12 11 11 9 6 5 4 5 6 5 4 4 3 4 4 5 4 4 4 4 3 2 2 3 4 5 6 6 7 8 8 9 10 11 11 12 13 13 13 14 14 14 14 14 14 14
18 16 15 14 13 13 10 8 7 6 6 6 5 4 4 4 4 4 4 4 4 4 3 3 3 3 4 5 5 6 7 8 9 9 10 10 11 11 12 12 13 13 13 13 14 14 14 14 15
19 17 16 15 14 14 11 10 8 8 7 7 6 5 4 4 4 4 4 4 4 3 4 4 4 4 5 5 6 6 7 8 9 10 10 11 11 11 11 12 12 12 12 13 13 14 14 14 15
20 19 17 16 15 15 13 11 10 9 8 8 7 5 4 4 4 4 4 4 4 4 4 4 4 4 5 6 6 7 8 9 10 10 10 10 11 11 11 12 12 12 13 13 13 13 14 14 15
21 20 19 18 17 16 12 11 11 10 9 8 7 5 5 4 4 5 5 5 4 4 3 3 4 4 5 5 6 7 8 9 9 10 10 11 12 12 12 13 13 13 13 14 14 14 14 14 15
23 22 21 19 17 15 13 12 11 10 10 9 7 6 6 5 5 5 5 5 5 4 4 4 4 5 5 6 7 8 9 9 10 11 11 12 12 12 13 13 13 13 14 14 14 14 14 14 15
24 23 21 19 18 15 13 12 11 11 10 9 8 7 6 6 6 6 5 5 4 4 4 4 4 4 5 6 7 8 9 10 10 11 12 12 13 13 13 13 13 14 14 14 14 14 14 14 15
25 24 22 20 18 16 14 13 12 11 11 10 8 7 6 6 6 5 5 5 5 5 4 4 3 4 5 6 7 8 9 10 11 11 12 13 14 14 14 13 14 14 14 14 14 14 14 14 13
26 25 24 21 20 18 16 14 14 12 11 10 9 7 7 7 6 6 5 5 5 4 4 3 3 5 6 7 7 8 9 10 11 12 13 13 14 14 14 14 15 15 15 15 14 13 13 13 13
26 25 23 22 21 19 16 14 14 13 12 11 9 8 8 7 7 7 6 5 5 4 4 4 4 5 6 7 7 8 10 11 11 12 13 14 14 14 15 15 15 15 15 15 14 13 13 13 13
25 25 24 22 20 19 16 15 14 13 12 11 11 10 9 9 8 8 7 6 5 4 4 4 4 5 6 7 8 9 10 11 12 13 14 14 15 15 16 16 16 16 16 15 14 14 13 12 12
25 24 23 22 20 18 17 15 14 14 13 11 10 10 10 9 8 7 6 6 5 4 4 4 4 5 6 8 8 9 10 11 12 14 14 15 16 16 16 16 16 16 16 16 15 14 13 12 12
24 23 22 20 19 18 18 16 14 13 12 11 10 9 9 8 7 7 6 5 5 4 4 4 5 6 7 8 9 9 10 12 13 14 15 15 16 16 17 17 17 17 16 16 15 14 13 12 12
23 22 21 20 19 18 17 14 12 12 12 11 11 10 9 8 8 7 6 6 5 5 4 4 5 6 7 8 9 9 10 11 12 13 14 15 16 17 17 17 17 17 17 16 15 14 13 12 12
20 19 19 18 18 18 16 13 12 12 11 11 10 10 9 9 8 7 6 6 5 5 4 5 6 6 7 8 8 9 10 11 12 13 14 15 16 16 17 17 17 17 17 17 16 14 14 13 12
19 18 16 16 17 16 15 13 12 11 11 11 11 10 9 9 8 7 6 6 5 4 4 5 6 6 7 7 8 9 10 11 12 13 14 15 16 16 17 17 17 18 17 16 16 14 14 13 12
21 19 15 13 13 13 13 12 12 11 11 11 11 10 10 9 8 7 6 6 5 4 5 5 6 7 7 7 8 9 10 11 12 13 14 15 16 16 17 17 17 18 17 17 16 14 14 13 11
20 17 14 12 12 12 12 11 11 11 10 10 9 10 9 8 8 7 6 5 4 4 5 5 6 7 8 8 8 9 10 10 12 13 14 15 15 16 16 17 17 18 18 17 16 15 14 13 11
17 15 13 12 11 10 10 10 11 10 9 9 9 9 9 8 7 7 6 5 4 4 5 5 6 7 7 8 8 9 10 10 12 13 14 14 15 16 16 17 17 18 18 18 17 15 14 13 12
16 15 14 12 11 9 10 10 11 9 9 9 9 9 9 8 7 6 5 5 4 5 5 6 6 7 8 8 8 9 9 10 12 13 13 14 15 15 16 17 17 17 18 18 17 16 15 14 12
16 15 13 12 11 10 9 10 11 9 8 8 8 8 9 8 7 6 5 5 5 5 6 6 7 7 7 7 8 9 10 10 11 12 13 14 14 15 16 17 17 17 17 18 17 17 16 14 13
16 16 14 13 11 11 10 8 8 8 8 7 7 8 8 8 7 6 5 5 5 5 5 6 7 7 7 7 8 9 10 11 12 12 13 14 14 15 16 16 17 17 17 17 17 17 16 15 13
17 15 13 12 11 10 10 10 8 7 7 7 7 7 7 7 6 5 5 5 5 5 5 6 7 7 7 8 8 9 10 11 11 12 13 14 14 15 15 16 16 17 17 17 17 17 16 15 13
17 13 10 9 9 10 10 11 9 8 8 7 7 7 7 6 6 5 5 5 5 5 6 6 7 7 7 8 9 9 10 11 12 13 13 14 14 15 16 16 16 16 17 17 17 17 16 15 13
16 15 12 11 10 9 9 9 8 8 8 8 8 8 7 6 6 6 6 6 6 6 7 7 7 7 8 9 9 10 11 11 12 13 13 14 14 15 16 16 16 16 16 17 17 17 17 15 14
15 13 11 9 8 7 8 9 8 7 7 8 8 8 8 7 7 7 6 6 6 7 7 8 8 8 9 10 10 11 11 12 13 13 13 14 14 15 15 16 16 16 16 16 17 17 16 16 14
14 14 12 9 8 9 9 9 8 7 7 8 7 7 7 7 7 7 7 7 7 8 8 8 8 8 9 10 11 11 12 12 13 14 14 14 15 15 15 16 16 16 16 16 16 16 16 16 14

GEFSSGP_500_meanwind_144.txt.gz
Wind_Speed
12 11 10 9 8 7 5 5 4 4 5 5 5 5 5 4 4 3 3 2 2 2 2 1 1 1 1 1 1 2 3 4 5 6 7 7 8 8 8 9 10 10 11 11 12 12 13 13 13
14 13 12 11 10 8 7 7 5 4 4 4 5 5 5 5 4 3 3 2 2 2 2 2 2 1 1 1 1 2 3 4 5 6 7 8 8 9 9 10 10 11 11 11 12 12 12 13 13
15 14 13 12 11 10 9 7 6 5 4 4 5 5 5 5 4 3 3 2 1 1 1 2 1 1 1 1 2 3 3 4 5 6 7 8 8 8 9 9 10 10 11 12 12 12 13 13 13
16 15 15 14 13 12 11 8 6 5 5 4 5 5 5 5 4 4 3 2 1 1 2 1 1 0 1 2 2 2 3 5 6 6 7 7 8 8 9 9 10 10 11 11 12 12 13 13 13
17 17 16 16 15 14 12 9 8 7 6 6 6 6 6 5 5 4 3 2 2 2 2 2 1 1 1 2 2 3 4 5 6 7 7 8 8 9 10 10 10 10 11 11 11 12 13 13 13
18 18 18 17 15 15 14 10 8 8 7 7 7 6 6 5 5 4 3 3 3 2 2 2 1 1 1 2 3 3 4 5 6 7 7 8 9 9 9 10 10 10 10 11 11 12 13 13 14
19 19 18 18 16 15 14 12 9 8 8 8 8 7 6 5 5 4 3 3 3 2 2 2 1 1 1 2 2 3 4 5 6 7 8 8 9 9 10 10 10 10 11 11 12 12 13 13 13
21 20 19 18 17 16 14 10 10 8 10 10 8 7 6 5 4 3 3 3 3 2 2 2 1 0 1 1 2 3 4 5 6 7 8 8 9 10 10 10 10 10 11 12 12 12 12 12 13
22 22 21 20 18 16 14 13 10 10 9 9 8 7 7 6 5 4 4 4 3 3 2 2 1 1 1 1 2 3 4 6 7 7 8 9 9 10 11 11 11 11 11 12 12 13 12 12 12
22 22 22 21 18 17 15 14 12 10 8 8 7 7 7 6 5 5 4 3 3 3 2 2 1 1 1 0 2 3 5 6 7 8 9 9 9 10 11 11 11 11 12 12 12 12 12 12 12
23 23 22 21 18 17 16 13 10 9 8 8 8 7 7 6 6 5 4 3 3 3 2 2 2 1 1 0 2 3 5 6 7 8 8 9 10 10 11 11 11 11 12 12 11 11 11 11 11
24 24 22 19 19 17 15 12 10 10 8 8 8 8 8 7 5 5 4 3 3 3 3 3 3 2 1 1 2 4 5 6 7 8 9 10 10 11 11 11 11 12 12 12 12 11 11 10 10
24 23 21 20 20 17 14 12 10 9 9 9 9 8 7 6 6 5 5 4 4 3 4 4 3 2 1 2 3 4 5 6 7 8 9 10 10 11 11 11 12 12 12 12 12 11 11 10 10
24 23 21 19 19 17 14 12 11 10 9 10 9 8 8 7 6 6 6 5 5 4 4 4 3 3 2 2 3 4 5 6 7 8 9 10 10 11 11 12 12 12 12 12 12 11 10 10 10
24 23 22 21 18 15 14 12 12 11 10 10 9 8 8 6 6 6 6 6 6 5 5 4 3 3 3 3 3 4 5 6 7 8 9 10 11 11 11 12 13 13 13 13 12 11 10 9 9
24 23 22 20 19 17 14 12 12 12 11 10 10 9 8 7 6 6 5 5 6 6 5 4 3 3 3 3 3 5 5 6 7 8 9 10 11 11 12 12 13 13 13 13 12 11 10 10 9
23 21 20 20 19 17 15 14 13 12 11 10 9 9 8 8 7 6 6 7 6 6 5 4 4 4 3 3 4 5 6 6 7 8 9 10 11 12 12 12 13 14 13 13 12 11 10 10 9
21 21 20 20 19 17 16 15 13 12 11 11 10 9 8 7 6 6 7 8 7 6 5 4 4 3 3 3 4 5 5 6 7 8 9 10 11 11 12 12 13 14 14 13 12 11 11 10 8
20 20 20 19 19 18 16 14 13 11 11 11 10 9 8 7 7 7 7 7 7 7 6 5 4 3 3 3 4 4 5 6 7 8 9 10 10 11 12 12 13 14 14 13 12 11 11 10 9
20 19 18 17 18 17 16 15 13 11 10 10 10 10 9 8 8 8 8 8 7 7 6 5 4 3 3 3 4 4 5 6 7 8 9 9 10 11 12 13 13 14 14 13 12 12 11 10 9
18 18 16 16 16 16 16 15 13 12 11 11 10 10 10 9 9 9 8 8 8 7 5 4 3 3 2 3 3 4 5 5 7 7 8 9 10 11 12 12 13 14 14 13 12 12 11 10 9
17 16 16 15 14 14 14 14 13 12 11 11 10 10 10 9 9 8 8 9 8 7 6 4 3 2 2 3 3 4 5 5 6 7 8 9 10 11 11 12 12 13 13 13 13 13 12 11 10
16 17 15 15 14 13 13 13 13 12 11 10 10 10 9 9 10 9 9 9 8 7 5 4 3 2 2 3 3 4 5 5 6 7 8 9 9 10 11 12 12 13 13 13 13 13 13 12 11
16 17 17 15 15 13 13 13 13 11 11 10 10 10 9 9 9 9 9 9 8 6 5 4 4 3 3 3 3 4 4 5 6 7 8 8 9 10 11 12 12 13 13 13 13 13 14 13 12
17 16 16 15 14 13 13 12 11 11 11 10 10 10 9 9 9 9 9 9 7 6 5 5 4 3 3 3 3 4 4 5 6 7 7 8 9 10 10 11 12 12 13 13 13 13 14 13 12
17 16 15 14 12 12 12 11 11 11 11 11 10 10 10 9 10 10 9 8 7 6 5 5 4 3 3 3 4 4 5 5 6 7 7 8 9 10 10 11 11 12 12 13 13 13 13 14 13
16 15 13 12 12 12 11 10 11 12 12 11 10 10 10 10 10 10 9 8 7 7 6 5 4 4 4 4 4 5 5 6 6 7 7 8 9 10 10 11 12 12 12 12 12 12 13 13 13
15 14 13 12 12 11 11 10 11 10 10 10 10 10 10 10 9 10 9 8 7 7 6 6 5 5 5 5 5 5 5 6 6 7 7 8 9 10 11 11 12 12 12 12 12 12 13 13 12
15 14 13 12 11 11 11 10 10 10 9 9 9 10 10 10 10 10 9 9 8 7 6 6 5 6 6 6 6 6 6 7 7 7 8 8 9 10 11 11 12 12 12 12 12 12 12 13 12
14 13 12 11 11 11 10 10 11 10 10 10 9 10 10 10 10 10 9 8 8 7 7 6 6 6 6 6 6 6 7 7 7 7 8 9 10 10 11 11 12 12 12 12 12 12 12 13 13

GEFSSGP_500_meanwind_150.txt.gz
Wind_Speed
14 14 13 11 10 8 7 6 6 5 4 6 6 6 6 6 6 5 4 3 3 2 2 2 2 1 1 1 2 2 3 4 5 6 6 7 8 8 8 8 9 9 9 10 10 10 10 10 11
16 15 14 13 12 10 9 8 7 6 5 6 6 7 6 6 6 5 4 3 3 2 2 2 2 1 1 1 2 2 2 4 5 6 7 7 8 9 9 9 10 10 9 10 10 10 10 10 11
17 17 16 15 14 12 10 9 8 7 6 6 7 8 7 7 6 6 4 3 3 3 3 3 3 2 1 1 2 3 3 4 5 6 7 8 8 9 9 10 10 10 10 10 10 11 10 10 11
18 17 17 16 15 14 12 10 8 8 7 7 7 7 7 7 6 6 5 4 3 3 3 3 3 2 2 1 2 3 3 4 5 6 7 8 9 9 10 10 10 10 10 11 11 11 11 11 11
19 18 18 17 16 14 13 12 10 9 8 8 8 8 7 6 6 6 5 4 4 4 4 4 3 2 2 2 2 2 3 4 5 6 7 9 9 10 10 10 10 11 11 11 12 12 12 11 11
20 19 18 17 16 15 15 13 11 10 9 9 9 9 8 6 6 6 6 5 5 5 4 4 3 2 2 1 2 2 3 4 5 6 8 9 9 10 10 10 11 11 11 12 12 13 12 12 12
21 20 19 18 17 16 15 13 12 11 11 10 9 9 9 7 6 6 6 5 6 5 5 4 3 2 2 1 2 2 3 4 5 7 8 8 9 9 9 10 11 11 12 12 12 12 12 12 12
21 21 20 20 18 17 15 14 13 12 12 11 11 10 9 8 7 7 6 6 6 6 5 4 3 3 2 2 2 2 3 4 6 7 7 8 8 9 10 10 11 12 12 12 12 12 12 12 12
21 21 20 19 18 17 15 14 12 12 13 12 12 11 9 9 8 8 7 7 7 6 5 4 3 3 2 2 2 2 3 4 5 7 7 8 9 10 10 11 12 12 12 12 12 11 11 11 11
22 21 21 20 19 17 15 15 14 13 13 13 12 11 10 9 8 8 7 7 7 6 5 4 4 3 2 2 3 3 4 5 6 7 8 9 10 10 11 11 12 12 12 12 12 11 10 10 10
22 21 21 20 19 17 15 14 14 13 13 13 12 11 10 10 9 9 8 7 7 6 6 5 4 3 3 3 3 3 4 5 6 7 8 10 10 10 11 12 12 12 12 12 11 11 10 9 9
22 22 21 20 19 17 15 14 14 12 12 12 11 10 10 10 10 10 9 8 8 7 6 5 4 3 3 4 4 4 4 5 7 8 8 10 10 11 11 12 12 12 12 11 10 10 9 9 9
22 22 22 21 20 18 16 15 13 12 12 11 12 11 10 10 10 11 10 9 8 7 6 5 5 4 4 4 4 4 5 5 6 7 8 10 11 11 12 12 12 12 12 11 11 10 9 9 8
22 22 22 21 20 19 17 15 14 12 13 13 13 13 12 11 10 11 11 10 9 8 7 6 5 5 4 4 4 4 5 5 6 8 9 10 11 11 11 12 12 12 12 11 10 10 9 8 7
22 22 21 20 19 18 17 16 15 14 14 14 14 14 13 12 11 11 11 10 10 9 8 7 6 5 5 5 5 5 5 6 7 8 9 10 10 11 11 12 12 12 12 11 10 9 9 8 7
22 22 20 20 20 19 17 16 16 16 15 14 14 14 13 12 12 11 11 10 10 9 8 7 6 5 5 5 5 5 6 6 7 8 8 9 10 11 11 11 12 12 12 11 10 9 8 8 7
23 22 21 20 20 19 18 16 16 17 15 14 14 14 13 13 12 11 11 11 10 10 9 8 6 6 5 5 5 6 6 6 6 7 8 9 10 11 11 11 12 12 12 11 10 9 8 8 7
21 21 21 21 20 19 18 17 17 17 17 15 14 14 14 13 12 12 11 11 10 10 9 8 7 6 5 5 5 5 5 5 6 7 7 9 10 10 11 11 11 11 11 11 10 10 9 8 7
19 19 20 20 20 19 18 17 17 17 17 16 15 14 14 13 12 12 11 10 10 10 9 8 7 5 4 4 4 4 4 5 5 6 7 9 10 10 11 11 11 11 11 11 11 10 10 9 7
19 18 19 19 18 18 18 17 17 17 16 15 15 14 13 13 13 12 12 11 11 10 9 8 6 5 4 3 3 3 4 5 5 6 7 9 9 10 10 11 11 11 11 11 11 11 10 10 8
17 17 18 18 17 18 18 17 16 16 16 15 15 14 13 13 13 12 12 11 11 10 9 8 6 5 4 3 2 3 3 4 5 6 7 8 9 10 10 11 10 10 11 12 12 11 11 10 9
16 16 16 16 17 17 17 17 16 16 15 14 14 13 13 13 12 13 12 11 10 10 9 8 6 5 3 3 3 3 3 4 5 6 7 8 9 10 10 11 11 11 12 12 12 12 11 10 9
14 15 15 16 16 16 17 17 16 16 15 14 13 13 13 13 13 12 12 12 11 10 9 8 6 5 4 3 4 3 4 4 5 6 7 8 9 9 10 11 11 12 12 12 13 12 12 11 10
15 15 15 16 17 16 15 16 16 15 14 14 14 13 14 13 13 13 13 13 12 11 9 8 7 5 4 4 4 3 3 4 5 6 7 8 8 9 10 11 11 12 12 12 13 13 12 12 11
15 14 15 15 16 15 14 15 15 15 14 14 15 15 15 14 13 13 13 13 12 11 9 8 7 6 5 5 4 3 3 4 5 6 7 7 8 8 10 10 11 11 12 12 12 13 12 12 12
14 13 13 13 13 13 13 13 14 14 14 14 15 15 15 15 14 13 14 13 12 11 10 9 7 6 6 6 5 4 4 5 5 6 7 7 7 8 9 10 11 11 12 12 12 13 12 12 12
14 13 11 12 12 12 12 12 12 14 14 14 14 14 14 14 14 14 13 13 12 12 10 10 8 8 7 6 5 5 5 5 6 6 6 6 7 8 9 10 10 11 12 12 12 12 12 12 12
13 12 12 12 13 13 12 11 12 13 14 15 14 14 14 14 14 14 13 13 13 12 11 10 9 8 7 7 6 5 5 6 6 6 6 7 7 8 9 10 10 11 11 12 12 12 12 12 12
12 11 11 11 12 12 11 10 12 13 14 14 15 14 15 15 14 14 14 13 12 12 11 10 9 8 7 7 6 6 6 6 6 6 6 7 8 8 9 9 10 11 11 11 11 11 12 12 12
12 11 11 11 10 10 9 10 12 12 13 13 15 15 15 15 15 15 15 14 13 12 11 10 10 9 8 8 7 7 7 7 7 7 7 8 8 8 9 9 9 10 11 11 11 12 12 12 12

GEFSSGP_500_meanwind_156.txt.gz
Wind_Speed
14 14 13 12 10 9 8 7 7 6 6 6 7 8 9 8 9 9 8 7 5 4 4 5 5 4 3 2 2 1 1 1 2 2 3 4 4 4 4 4 4 5 5 5 5 5 5 5 5
15 14 14 13 11 10 10 9 8 8 7 7 8 9 9 10 9 9 9 7 6 5 5 5 4 3 2 1 1 1 0 2 3 3 3 4 5 5 6 6 5 5 5 5 5 6 6 6 6
15 15 15 14 13 12 11 10 9 8 8 7 8 10 10 10 9 9 9 8 6 5 5 5 4 3 2 2 1 0 1 1 3 4 4 5 5 6 6 6 6 6 6 6 6 6 6 7 7
17 16 16 15 15 13 12 11 10 9 8 8 8 10 10 10 10 10 9 8 6 6 6 5 4 3 2 2 1 1 0 2 3 4 5 5 6 7 7 7 7 7 7 7 7 7 7 7 8
18 17 17 16 16 14 13 12 10 10 9 9 9 10 10 10 11 11 10 8 7 7 6 6 5 3 3 3 2 1 1 2 3 4 5 6 7 7 8 8 8 8 8 8 7 7 7 8 8
19 18 18 17 17 16 14 12 11 10 10 9 9 10 10 10 11 11 10 9 8 7 7 6 5 4 3 3 3 2 2 3 4 5 6 6 7 8 8 8 8 8 9 9 8 8 8 8 8
20 19 19 18 17 16 15 13 12 11 11 10 10 10 11 11 11 11 11 9 8 8 7 6 5 4 4 3 3 2 2 3 4 5 6 7 7 8 8 8 9 9 9 9 9 9 8 8 8
21 20 20 19 18 17 15 14 13 13 12 11 10 10 10 11 11 11 11 11 10 9 8 7 6 5 4 4 3 3 3 4 5 6 6 7 7 8 8 9 9 10 10 10 9 9 8 8 8
20 21 21 20 19 18 16 15 14 13 12 12 11 11 11 11 11 11 11 11 10 9 8 7 6 5 5 4 3 3 3 4 5 6 7 7 7 8 8 9 10 10 10 9 9 8 7 7 7
20 21 21 20 20 19 17 16 15 14 14 13 13 13 12 12 12 11 11 11 10 9 8 7 6 6 5 4 3 3 4 5 5 6 6 7 8 8 9 10 10 10 10 9 8 8 7 7 7
20 20 20 20 20 19 18 17 15 15 14 15 15 14 13 13 13 12 12 11 10 9 9 8 6 6 5 4 4 4 4 5 6 6 7 7 8 9 9 10 10 10 10 9 8 7 7 6 6
19 20 20 20 19 19 18 17 16 15 15 15 16 15 15 14 13 13 12 11 10 9 9 8 7 6 5 4 4 4 5 5 6 7 7 8 9 9 9 10 10 10 10 9 8 7 6 6 6
19 20 20 19 19 18 17 16 16 15 15 15 15 15 15 15 13 13 12 10 10 9 9 8 7 6 5 4 4 4 5 6 7 7 7 8 9 9 10 10 11 11 10 9 8 7 6 6 6
19 20 19 19 19 18 17 16 16 15 14 15 16 16 15 15 14 13 12 11 11 10 9 9 7 6 5 5 4 4 5 6 7 7 8 8 9 9 10 10 11 11 10 9 8 6 6 5 5
19 19 19 19 19 19 18 17 16 16 16 15 15 15 15 14 13 13 13 12 12 11 10 9 7 6 5 4 4 4 5 6 7 7 7 8 8 9 9 10 10 11 10 8 7 6 6 5 5
19 19 19 19 19 19 19 18 17 17 16 17 16 15 15 15 14 13 13 12 11 11 10 9 8 6 5 4 4 4 5 6 6 6 7 7 8 8 9 9 10 10 9 8 7 6 6 5 4
18 19 20 19 19 20 20 18 18 18 17 17 17 16 16 15 14 13 12 12 11 11 10 9 8 6 5 4 4 4 4 5 5 5 6 7 7 8 8 9 9 9 9 8 7 6 5 5 4
18 19 20 20 20 19 19 18 18 19 18 18 17 17 17 16 15 14 13 12 11 11 11 9 7 6 5 4 4 4 4 4 4 5 6 6 7 7 8 8 8 9 8 8 7 6 6 5 4
16 17 18 18 19 19 18 17 17 18 17 17 17 17 17 17 15 14 14 12 11 10 10 9 7 7 6 5 5 4 4 3 4 4 5 5 6 6 7 8 8 9 8 8 7 6 6 5 4
15 16 18 18 18 18 18 17 17 17 17 16 16 16 16 16 15 14 14 13 12 11 10 9 8 7 6 6 5 4 3 3 3 3 4 5 6 6 7 8 8 8 8 8 8 7 6 5 5
14 15 16 17 17 18 17 17 16 17 16 16 16 17 16 16 15 13 14 14 12 12 10 10 8 7 6 6 5 4 3 3 3 3 4 4 5 6 7 8 8 9 9 8 8 7 7 6 5
14 15 16 16 17 17 17 17 17 16 17 17 17 17 16 16 15 14 14 13 13 12 11 10 9 7 6 6 5 3 2 2 2 3 3 4 5 6 6 7 8 9 9 9 9 8 7 7 6
13 14 15 16 17 17 16 17 16 17 17 17 18 17 16 15 15 14 13 14 13 12 11 10 9 8 7 6 5 4 2 2 2 2 3 4 5 6 6 7 8 8 8 9 9 8 8 7 7
13 13 14 15 15 15 16 16 16 17 16 17 17 17 16 16 15 15 14 14 14 13 12 10 9 8 7 7 6 4 3 2 2 2 2 3 5 6 6 7 7 8 8 8 8 8 8 8 7
13 13 13 14 14 14 14 15 16 16 16 16 17 17 17 16 15 15 14 14 14 14 13 11 10 9 8 7 6 5 4 3 3 3 3 3 4 5 5 6 6 7 8 8 8 8 8 8 8
12 13 14 13 13 13 13 14 15 15 16 16 16 17 17 17 16 16 15 14 14 14 14 12 11 10 9 8 7 6 5 4 4 3 3 3 4 4 4 5 6 6 7 7 8 8 8 8 8
12 12 13 13 12 13 13 13 13 15 16 16 16 17 17 16 15 16 16 15 14 14 14 13 12 11 10 9 7 6 5 5 4 4 4 3 4 4 4 5 5 6 6 7 7 8 8 8 7
11 12 12 12 11 11 12 12 13 14 16 17 17 16 16 15 15 16 15 15 14 15 15 14 13 12 10 9 8 7 6 6 5 4 3 3 3 3 4 4 5 5 6 7 7 7 7 7 7
11 11 12 11 11 11 11 11 12 14 16 16 17 16 15 15 15 15 16 15 15 15 15 15 14 12 11 10 9 8 7 7 6 5 4 3 3 4 4 4 5 5 6 6 6 7 7 7 7
11 11 11 11 11 11 11 11 12 14 16 17 17 17 16 16 16 15 15 15 15 15 15 14 14 12 11 10 10 9 8 8 7 6 6 5 5 5 5 5 5 5 6 7 7 7 7 7 7